Himawari 4

operational
NORAD ID: 20217 Int'l Des: 1989-070 Owner: NASDA Country: J
HEOCIRCULAR

关于 Himawari 4

正在加载描述...

实时位置

正在加载3D地球...

即将过境

高度历史

Altitude vs Time

uPlot chart will show altitude changes over time

两行轨道根数

1 20217U 89070A 26070.99571447 -.00000051 00000-0 00000-0 0 9994
2 20217 14.8418 347.5227 0043167 144.1236 99.6536 0.97410534131592
Epoch: Mar 11, 2026 • Age: 73 hours

当前状态

高度 36650.2 km
速度 3.04 km/s
星下点 -13.64°S, 41.75°E
发射日期 Sep 5, 1989
运行时间 36.5 years
类型 weather

技术详情

分类 Payload
质量 325.00 kg
干质量 284.00 kg
总质量 725.00 kg
长度 3.40 m
直径 2.20 m
跨度 3.40 m
形状 Cyl
制造商 NEC/HSES
平台类型 HS-378
阶段状态 In Orbit
所有者/国家 NASDA/J

大型星座

Loading constellations...